TimeEST,TemperatureF,Dew PointF,Humidity,Sea Level PressureIn,VisibilityMPH,Wind Direction,Wind SpeedMPH,Gust SpeedMPH,PrecipitationIn,Events,Conditions,WindDirDegrees,DateUTC
12:15 AM,37.4,37.4,100,29.81,10.0,Calm,Calm,-,N/A,,Overcast,0,2013-02-24 05:15:00
12:35 AM,37.4,37.4,100,29.82,4.0,North,4.6,-,N/A,,Overcast,350,2013-02-24 05:35:00
12:55 AM,37.4,37.4,100,29.80,4.0,Calm,Calm,-,N/A,,Overcast,0,2013-02-24 05:55:00
1:15 AM,37.4,37.4,100,29.80,2.5,Calm,Calm,-,N/A,,Overcast,0,2013-02-24 06:15:00
1:35 AM,37.4,37.4,100,29.80,3.0,North,4.6,-,N/A,,Overcast,350,2013-02-24 06:35:00
1:55 AM,37.4,37.4,100,29.80,7.0,North,3.5,-,N/A,,Overcast,10,2013-02-24 06:55:00
2:15 AM,37.4,37.4,100,29.82,10.0,Calm,Calm,-,N/A,,Overcast,0,2013-02-24 07:15:00
2:35 AM,37.4,35.6,93,29.81,10.0,Calm,Calm,-,N/A,,Overcast,0,2013-02-24 07:35:00
2:55 AM,37.4,37.4,100,29.80,10.0,Calm,Calm,-,N/A,,Overcast,0,2013-02-24 07:55:00
3:15 AM,37.4,37.4,100,29.80,10.0,West,4.6,-,N/A,,Overcast,280,2013-02-24 08:15:00
3:35 AM,37.4,37.4,100,29.79,10.0,NW,3.5,-,N/A,,Overcast,320,2013-02-24 08:35:00
3:55 AM,37.4,37.4,100,29.77,4.0,Calm,Calm,-,N/A,,Overcast,0,2013-02-24 08:55:00
4:15 AM,37.4,37.4,100,29.78,2.0,NW,4.6,-,N/A,,Overcast,320,2013-02-24 09:15:00
4:35 AM,37.4,37.4,100,29.78,5.0,NW,4.6,-,N/A,,Overcast,310,2013-02-24 09:35:00
4:55 AM,37.4,37.4,100,29.77,5.0,North,3.5,-,N/A,,Overcast,350,2013-02-24 09:55:00
5:15 AM,37.4,37.4,100,29.77,7.0,Calm,Calm,-,N/A,,Overcast,0,2013-02-24 10:15:00
5:35 AM,37.4,35.6,93,29.78,10.0,North,3.5,-,N/A,,Overcast,360,2013-02-24 10:35:00
5:55 AM,37.4,35.6,93,29.79,10.0,Calm,Calm,-,N/A,,Overcast,0,2013-02-24 10:55:00
6:15 AM,37.4,35.6,93,29.79,10.0,Calm,Calm,-,N/A,,Overcast,0,2013-02-24 11:15:00
6:35 AM,37.4,35.6,93,29.78,10.0,Calm,Calm,-,N/A,,Scattered Clouds,0,2013-02-24 11:35:00
6:55 AM,35.6,35.6,100,29.79,7.0,Calm,Calm,-,N/A,,Scattered Clouds,0,2013-02-24 11:55:00
7:15 AM,35.6,35.6,100,29.79,3.0,Calm,Calm,-,N/A,,Unknown,0,2013-02-24 12:15:00
7:35 AM,35.6,35.6,100,29.80,3.0,Calm,Calm,-,N/A,,Unknown,0,2013-02-24 12:35:00
7:55 AM,37.4,35.6,93,29.80,5.0,Calm,Calm,-,N/A,,Scattered Clouds,0,2013-02-24 12:55:00
8:15 AM,37.4,35.6,93,29.81,7.0,Calm,Calm,-,N/A,,Mostly Cloudy,0,2013-02-24 13:15:00
8:35 AM,39.2,37.4,93,29.81,10.0,NW,5.8,-,N/A,,Overcast,310,2013-02-24 13:35:00
8:55 AM,41.0,37.4,87,29.81,10.0,WNW,4.6,-,N/A,,Mostly Cloudy,290,2013-02-24 13:55:00
9:15 AM,42.8,37.4,81,29.81,10.0,NNW,5.8,-,N/A,,Mostly Cloudy,340,2013-02-24 14:15:00
9:35 AM,42.8,37.4,81,29.80,10.0,North,6.9,-,N/A,,Mostly Cloudy,360,2013-02-24 14:35:00
9:55 AM,44.6,37.4,76,29.80,10.0,WNW,6.9,-,N/A,,Scattered Clouds,300,2013-02-24 14:55:00
10:15 AM,46.4,35.6,66,29.81,10.0,NW,11.5,-,N/A,,Scattered Clouds,310,2013-02-24 15:15:00
10:35 AM,44.6,33.8,66,29.81,10.0,WNW,8.1,16.1,N/A,,Scattered Clouds,290,2013-02-24 15:35:00
10:55 AM,44.6,32.0,61,29.82,10.0,WNW,11.5,16.1,N/A,,Overcast,300,2013-02-24 15:55:00
11:15 AM,44.6,32.0,61,29.82,10.0,West,12.7,18.4,N/A,,Overcast,280,2013-02-24 16:15:00
11:35 AM,46.4,32.0,57,29.82,10.0,WNW,11.5,18.4,N/A,,Mostly Cloudy,290,2013-02-24 16:35:00
11:55 AM,44.6,32.0,61,29.82,10.0,WNW,11.5,17.3,N/A,,Mostly Cloudy,300,2013-02-24 16:55:00
12:15 PM,44.6,32.0,61,29.82,10.0,NW,10.4,17.3,N/A,,Overcast,320,2013-02-24 17:15:00
12:35 PM,44.6,32.0,61,29.81,10.0,NW,10.4,18.4,N/A,,Overcast,310,2013-02-24 17:35:00
12:55 PM,44.6,32.0,61,29.81,10.0,WNW,9.2,17.3,N/A,,Overcast,290,2013-02-24 17:55:00
1:15 PM,44.6,32.0,61,29.81,10.0,NNW,8.1,17.3,N/A,,Mostly Cloudy,330,2013-02-24 18:15:00
1:35 PM,44.6,32.0,61,29.81,10.0,WNW,10.4,17.3,N/A,,Mostly Cloudy,290,2013-02-24 18:35:00
1:55 PM,44.6,32.0,61,29.80,10.0,NW,12.7,17.3,N/A,,Overcast,310,2013-02-24 18:55:00
2:15 PM,42.8,30.2,61,29.81,10.0,NW,11.5,20.7,N/A,,Overcast,310,2013-02-24 19:15:00
2:35 PM,42.8,30.2,61,29.82,10.0,NW,10.4,23.0,N/A,,Mostly Cloudy,310,2013-02-24 19:35:00
2:55 PM,42.8,28.4,57,29.82,10.0,West,15.0,21.9,N/A,,Overcast,280,2013-02-24 19:55:00
3:15 PM,42.8,26.6,53,29.83,10.0,WNW,11.5,24.2,N/A,,Overcast,290,2013-02-24 20:15:00
3:35 PM,41.0,26.6,57,29.85,10.0,WNW,16.1,25.3,N/A,,Overcast,290,2013-02-24 20:35:00
3:55 PM,41.0,26.6,57,29.85,10.0,WNW,17.3,25.3,N/A,,Overcast,290,2013-02-24 20:55:00
4:15 PM,41.0,26.6,57,29.86,10.0,WNW,12.7,21.9,N/A,,Overcast,300,2013-02-24 21:15:00
4:35 PM,39.2,26.6,61,29.87,10.0,WNW,12.7,19.6,N/A,,Overcast,300,2013-02-24 21:35:00
4:55 PM,39.2,26.6,61,29.88,10.0,WNW,11.5,20.7,N/A,,Overcast,300,2013-02-24 21:55:00
5:15 PM,37.4,26.6,65,29.89,10.0,NW,10.4,23.0,N/A,,Overcast,310,2013-02-24 22:15:00
5:35 PM,37.4,26.6,65,29.90,10.0,NW,11.5,20.7,N/A,,Overcast,310,2013-02-24 22:35:00
5:55 PM,37.4,24.8,60,29.92,10.0,WNW,9.2,18.4,N/A,,Overcast,290,2013-02-24 22:55:00
6:15 PM,35.6,23.0,60,29.93,10.0,WNW,8.1,-,N/A,,Scattered Clouds,300,2013-02-24 23:15:00
6:35 PM,35.6,23.0,60,29.94,10.0,NW,10.4,-,N/A,,Clear,310,2013-02-24 23:35:00
6:55 PM,35.6,23.0,60,29.95,10.0,NW,8.1,-,N/A,,Clear,310,2013-02-24 23:55:00
7:15 PM,35.6,23.0,60,29.96,10.0,WNW,6.9,-,N/A,,Clear,300,2013-02-25 00:15:00
7:35 PM,33.8,23.0,65,29.96,10.0,WNW,4.6,-,N/A,,Clear,290,2013-02-25 00:35:00
7:55 PM,35.6,23.0,60,29.98,10.0,WNW,6.9,-,N/A,,Clear,290,2013-02-25 00:55:00
8:15 PM,33.8,23.0,65,29.98,10.0,WNW,3.5,-,N/A,,Clear,290,2013-02-25 01:15:00
8:35 PM,33.8,23.0,65,29.99,10.0,WNW,3.5,-,N/A,,Clear,290,2013-02-25 01:35:00
8:55 PM,33.8,23.0,65,30.00,10.0,WNW,3.5,-,N/A,,Scattered Clouds,290,2013-02-25 01:55:00
9:15 PM,33.8,21.2,60,30.00,10.0,WNW,4.6,-,N/A,,Scattered Clouds,290,2013-02-25 02:15:00
9:35 PM,33.8,21.2,60,30.01,10.0,WNW,4.6,-,N/A,,Scattered Clouds,300,2013-02-25 02:35:00
9:55 PM,33.8,21.2,60,30.01,10.0,NW,4.6,-,N/A,,Clear,310,2013-02-25 02:55:00
10:15 PM,33.8,21.2,60,30.01,10.0,WNW,5.8,-,N/A,,Clear,290,2013-02-25 03:15:00
10:35 PM,32.0,21.2,64,30.01,10.0,WNW,3.5,-,N/A,,Clear,290,2013-02-25 03:35:00
10:55 PM,32.0,21.2,64,30.01,10.0,WNW,3.5,-,N/A,,Clear,300,2013-02-25 03:55:00
11:15 PM,32.0,23.0,69,30.02,10.0,WNW,4.6,-,N/A,,Clear,300,2013-02-25 04:15:00
11:35 PM,32.0,23.0,69,30.02,10.0,West,4.6,-,N/A,,Clear,260,2013-02-25 04:35:00
11:55 PM,32.0,21.2,64,30.03,10.0,WNW,5.8,-,N/A,,Clear,290,2013-02-25 04:55:00